Starlink 35712

operational
NORAD ID: 66216 Int'l Des: 2025-244 Owner: SPXS Country: US Constellation: starlink
NOTLE

Über Starlink 35712

Beschreibung wird geladen...

Live-Position

3D-Globus wird geladen...

Nächste Überflüge

Höhenverlauf

Altitude vs Time

uPlot chart will show altitude changes over time

Zweizeiliger Elementsatz

1 66216C 25244K 25301.74076389 .02959300 00000+0 42134-2 0 3013
2 66216 53.1571 134.0775 0010933 274.4430 341.4196 16.01867379 19
Epoch: 28. Okt. 2025 • Age: 87 hours

Aktueller Status

Höhe 199.3 km
Geschwindigkeit 7.79 km/s
Subsatellitenpunkt 31.12°N, 116.33°W
Startdatum 28. Okt. 2025
Alter 3 days
Typ internet

Technische Details

Klassifizierung Payload
Masse 575.00 kg
Trockenmasse 530.00 kg
Gesamtmasse 575.00 kg
Länge 0.30 m
Durchmesser 4.10 m
Spannweite 29.00 m
Form Box + pan
Hersteller SPXS
Bus-Typ Starlink V2MO
Phasenstatus In Orbit
Besitzer/Staat SPXS/US

Große Konstellationen

Loading constellations...